Location: Sevilla
(37.3933°N, 5.9839°W)
Time: 04:20:35
(UTC+02:00)

Tiros 1 despin weight - Pass Details

Date: 01 July 2024
Orbit: 576 x 620 km, 48.2° (Epoch: 22 July)

Event Time Altitude Azimuth Distance (km) Brightness Sun altitude
Rises 09:41:16 0° 207° (SSW) 2,829 ? 27.9°
Reaches altitude 10° 09:43:44 10° 196° (SSW) 1,938 ? 28.4°
Maximum altitude 09:47:38 30° 135° (SE) 1,094 ? 29.1°
Drops below altitude 10° 09:51:35 10° 75° (ENE) 1,970 ? 29.9°
Sets 09:54:06 0° 64° (ENE) 2,884 ? 30.4°
